Weather History for Springfield, MO

Change the Weather History Date:

Monday, September 9, 2013

  Actual Average Record
Temperature  
Mean Temperature 83 °F 72 °F  
Max Temperature 95 °F 83 °F 98 °F (1939)
Min Temperature 70 °F 61 °F 42 °F (1943)
Degree Days  
Heating Degree Days 0 1  
Month to date heating degree days 0 1  
Since 1 July heating degree days 0 3  
Cooling Degree Days 18 7  
Month to date cooling degree days 108 78  
Year to date cooling degree days 1251 1264  
Growing Degree Days 32 (Base 50)    
Moisture  
Dew Point 65 °F    
Average Humidity 60    
Maximum Humidity 90    
Minimum Humidity 30    
Precipitation  
Precipitation 0.00 in 0.15 in 1.79 in (2010)
Month to date precipitation 0.04 1.36  
Year to date precipitation 38.19 31.47  
Snow  
Snow 0.00 in - - ()
Month to date snowfall 0.0  
Since 1 July snowfall 0.0  
Since 1 September snowfall 0.0  
Snow Depth 0.00 in    
Sea Level Pressure  
Sea Level Pressure 29.95 in    
Wind  
Wind Speed 8 mph (SSW)    
Max Wind Speed 16 mph    
Max Gust Speed 21 mph    
Visibility 10 miles    
Events      
T = Trace of Precipitation, MM = Missing Value Source: NWS Daily Summary

Daily Weather History Graph

Daily Weather History Graph

Search for Another Location

Airport:

Trip Planner

Search our weather history database for the weather conditions in past years. The results will help you decide how hot, cold, wet, or windy it might be!

Date:

Astronomy

Sep. 09, 2013 Rise Set
Actual Time 6:50 AM CDT 7:29 PM CDT
Civil Twilight 6:24 AM CDT 7:56 PM CDT
Nautical Twilight 5:53 AM CDT 8:27 PM CDT
Astronomical Twilight 5:21 AM CDT 8:58 PM CDT
Moon 11:06 AM CDT (9/9) 9:54 PM CDT (9/9)
Length of Visible Light 13h 31m
Length of Day
12h 39m
Waxing Crescent, 19% of the Moon is Illuminated
Sep 9
Waxing Crescent
Sep 12
First Quarter
Sep 19
Full
Sep 26
Last Quarter
Oct 4
New

Hourly Weather History & Observations

Time (CDT) Temp. Heat Index Dew Point Humidity Pressure Visibility Wind Dir Wind Speed Gust Speed Precip Events Conditions
12:52 AM 75.9 °F - 69.1 °F 79% 29.92 in 10.0 mi South 3.5 mph - N/A   Clear
1:52 AM 75.0 °F - 69.1 °F 82% 29.91 in 10.0 mi SSE 9.2 mph - N/A   Clear
2:52 AM 72.0 °F - 68.0 °F 87% 29.91 in 9.0 mi South 4.6 mph - N/A   Clear
3:52 AM 73.0 °F - 68.0 °F 84% 29.92 in 9.0 mi South 5.8 mph - N/A   Clear
4:52 AM 72.0 °F - 68.0 °F 87% 29.93 in 9.0 mi South 6.9 mph - N/A   Clear
5:52 AM 71.1 °F - 66.9 °F 87% 29.94 in 9.0 mi South 6.9 mph - N/A   Clear
6:52 AM 70.0 °F - 66.0 °F 87% 29.95 in 8.0 mi South 9.2 mph - N/A   Clear
7:52 AM 73.0 °F - 64.9 °F 76% 29.97 in 10.0 mi SSW 4.6 mph - N/A   Clear
8:52 AM 79.0 °F - 64.9 °F 62% 29.98 in 10.0 mi SW 6.9 mph - N/A   Clear
9:52 AM 84.9 °F 86.1 °F 64.0 °F 49% 29.99 in 10.0 mi WSW 10.4 mph - N/A   Clear
10:52 AM 88.0 °F 88.7 °F 63.0 °F 43% 29.99 in 10.0 mi WSW 9.2 mph - N/A   Clear
11:52 AM 91.0 °F 91.9 °F 63.0 °F 39% 29.99 in 10.0 mi SW 10.4 mph - N/A   Clear
12:52 PM 91.9 °F 91.8 °F 61.0 °F 35% 29.98 in 10.0 mi SW 11.5 mph - N/A   Clear
1:52 PM 93.9 °F 93.6 °F 60.1 °F 32% 29.97 in 10.0 mi WSW 11.5 mph - N/A   Clear
2:52 PM 93.9 °F 92.9 °F 57.9 °F 30% 29.95 in 10.0 mi SSW 13.8 mph - N/A   Clear
3:52 PM 93.9 °F 93.6 °F 60.1 °F 32% 29.94 in 10.0 mi SW 13.8 mph 19.6 mph N/A   Clear
4:52 PM 93.0 °F 93.8 °F 62.1 °F 36% 29.94 in 10.0 mi SSW 10.4 mph - N/A   Clear
5:52 PM 91.0 °F 91.9 °F 63.0 °F 39% 29.93 in 10.0 mi SSW 9.2 mph - N/A   Clear
6:52 PM 88.0 °F 90.3 °F 66.0 °F 48% 29.93 in 10.0 mi SSW 3.5 mph - N/A   Clear
7:52 PM 81.0 °F 83.8 °F 68.0 °F 65% 29.94 in 10.0 mi SSE 3.5 mph - N/A   Clear
8:52 PM 79.0 °F - 66.0 °F 64% 29.95 in 10.0 mi South 6.9 mph - N/A   Clear
9:52 PM 78.1 °F - 66.0 °F 66% 29.96 in 10.0 mi SSE 8.1 mph - N/A   Clear
10:52 PM 78.1 °F - 64.0 °F 62% 29.97 in 10.0 mi SSE 8.1 mph - N/A   Clear
11:52 PM 77.0 °F - 64.9 °F 66% 29.98 in 10.0 mi SSE 9.2 mph - N/A   Clear